• In Sweden
  • List of Countries
  • For 7 days
  • Water Temperature
  • Satellite Maps
  • Weather Map
  • Weather Widgets
  • user-avatar
    Login

    Hourly Weather Pavlov Mys

    Today, 28 May, Monday

    Time Temperature Precipitation Wind Pressure Humidity
    00:00 +4°C° 0 mm 1 mps 750 mmHg 55%
    01:00 +3°C° 0 mm 1 mps 750 mmHg 55%
    02:00 +3°C° 0 mm 1 mps 749 mmHg 56%
    03:00 +3°C° 0 mm 1 mps 749 mmHg 56%
    04:00 +4°C° 0 mm 1 mps 749 mmHg 54%
    05:00 +4°C° 0 mm 1 mps 749 mmHg 53%
    06:00 +5°C° 0 mm 1 mps 748 mmHg 51%
    07:00 +7°C° 0 mm 1 mps 748 mmHg 47%
    08:00 +8°C° 0 mm 1 mps 748 mmHg 43%
    09:00 +10°C° 0 mm 1 mps 748 mmHg 39%
    10:00 +12°C° 0 mm 1 mps 748 mmHg 35%
    11:00 +14°C° 0 mm 1 mps 748 mmHg 31%
    12:00 +16°C° 0 mm 1 mps 747 mmHg 27%
    13:00 +16°C° 0 mm 1 mps 747 mmHg 26%
    14:00 +16°C° 0 mm 2 mps 747 mmHg 25%
    15:00 +16°C° 0 mm 2 mps 747 mmHg 24%
    16:00 +16°C° 0 mm 3 mps 747 mmHg 27%
    17:00 +16°C° 0 mm 3 mps 748 mmHg 30%
    18:00 +15°C° 0 mm 4 mps 748 mmHg 32%
    19:00 +13°C° 0 mm 4 mps 748 mmHg 44%
    20:00 +11°C° 0 mm 4 mps 748 mmHg 56%
    21:00 +8°C° 0 mm 4 mps 748 mmHg 68%
    22:00 +7°C° 0 mm 4 mps 748 mmHg 73%
    23:00 +7°C° 0 mm 4 mps 748 mmHg 77%

    Tomorrow, 29 May, Tuesday

    Time Temperature Precipitation Wind Pressure Humidity
    00:00 +6°C° 0 mm 4 mps 748 mmHg 82%
    01:00 +6°C° 0 mm 5 mps 748 mmHg 81%
    02:00 +5°C° 0 mm 5 mps 747 mmHg 80%
    03:00 +5°C° 0 mm 5 mps 747 mmHg 79%
    04:00 +6°C° 0 mm 5 mps 747 mmHg 78%
    05:00 +6°C° 0 mm 5 mps 746 mmHg 77%
    06:00 +6°C° 0 mm 5 mps 746 mmHg 76%
    07:00 +7°C° 0.1 mm 6 mps 746 mmHg 74%
    08:00 +9°C° 0.1 mm 6 mps 746 mmHg 71%
    09:00 +10°C° 0.1 mm 6 mps 745 mmHg 69%
    10:00 +10°C° 0.2 mm 6 mps 745 mmHg 71%
    11:00 +11°C° 0.2 mm 6 mps 745 mmHg 72%
    12:00 +11°C° 0.2 mm 7 mps 745 mmHg 74%
    13:00 +11°C° 0.4 mm 6 mps 744 mmHg 76%
    14:00 +11°C° 0.4 mm 6 mps 744 mmHg 78%
    15:00 +13°C° 0.4 mm 6 mps 744 mmHg 80%
    16:00 +13°C° 0.6 mm 6 mps 744 mmHg 79%
    17:00 +12°C° 0.6 mm 7 mps 744 mmHg 78%
    18:00 +12°C° 0.6 mm 7 mps 744 mmHg 78%
    19:00 +10°C° 0.1 mm 6 mps 745 mmHg 80%
    20:00 +8°C° 0.1 mm 5 mps 746 mmHg 82%
    21:00 +6°C° 0.1 mm 4 mps 746 mmHg 85%
    22:00 +5°C° 0 mm 4 mps 747 mmHg 88%
    23:00 +4°C° 0 mm 3 mps 748 mmHg 91%

    Day after tomorrow, 30 May, Wednesday

    Time Temperature Precipitation Wind Pressure Humidity
    00:00 +4°C° 0 mm 2 mps 749 mmHg 94%
    01:00 +3°C° 0 mm 2 mps 749 mmHg 95%
    02:00 +3°C° 0 mm 2 mps 749 mmHg 95%
    03:00 +3°C° 0 mm 2 mps 749 mmHg 96%
    04:00 +4°C° 0 mm 2 mps 749 mmHg 93%
    05:00 +4°C° 0 mm 2 mps 749 mmHg 91%
    06:00 +5°C° 0 mm 2 mps 749 mmHg 88%
    07:00 +6°C° 0.1 mm 2 mps 749 mmHg 85%
    08:00 +7°C° 0.1 mm 2 mps 749 mmHg 81%
    09:00 +8°C° 0.1 mm 2 mps 749 mmHg 78%
    10:00 +10°C° 0.1 mm 2 mps 749 mmHg 71%
    11:00 +12°C° 0.1 mm 2 mps 748 mmHg 63%
    12:00 +14°C° 0.1 mm 1 mps 748 mmHg 56%
    13:00 +15°C° 0 mm 1 mps 747 mmHg 53%
    14:00 +16°C° 0 mm 1 mps 747 mmHg 50%
    15:00 +18°C° 0 mm 1 mps 747 mmHg 48%
    16:00 +16°C° 0.2 mm 2 mps 746 mmHg 54%
    17:00 +15°C° 0.2 mm 2 mps 746 mmHg 60%
    18:00 +13°C° 0.2 mm 3 mps 746 mmHg 66%
    19:00 +12°C° 0.8 mm 3 mps 745 mmHg 74%
    20:00 +10°C° 0.8 mm 3 mps 745 mmHg 81%
    21:00 +8°C° 0.8 mm 4 mps 745 mmHg 88%
    22:00 +8°C° 0.4 mm 4 mps 745 mmHg 89%
    23:00 +8°C° 0.4 mm 3 mps 745 mmHg 90%

    31 May, Thursday

    Time Temperature Precipitation Wind Pressure Humidity
    00:00 +8°C° 0.4 mm 3 mps 744 mmHg 92%
    01:00 +8°C° 0.1 mm 3 mps 744 mmHg 91%
    02:00 +7°C° 0.1 mm 3 mps 744 mmHg 91%
    03:00 +7°C° 0.1 mm 3 mps 744 mmHg 91%
    04:00 +6°C° 1.3 mm 4 mps 744 mmHg 91%
    05:00 +6°C° 1.3 mm 4 mps 744 mmHg 91%
    06:00 +5°C° 1.3 mm 5 mps 744 mmHg 91%
    07:00 +5°C° 1.7 mm 4 mps 744 mmHg 90%
    08:00 +5°C° 1.7 mm 4 mps 745 mmHg 89%
    09:00 +6°C° 1.7 mm 4 mps 745 mmHg 88%
    10:00 +7°C° 0.5 mm 4 mps 746 mmHg 79%
    11:00 +10°C° 0.5 mm 4 mps 746 mmHg 71%
    12:00 +11°C° 0.5 mm 4 mps 747 mmHg 62%
    13:00 +12°C° 0 mm 3 mps 747 mmHg 53%
    14:00 +14°C° 0 mm 3 mps 748 mmHg 43%
    15:00 +16°C° 0 mm 3 mps 748 mmHg 34%
    16:00 +16°C° 0 mm 3 mps 749 mmHg 33%
    17:00 +16°C° 0 mm 3 mps 749 mmHg 32%
    18:00 +16°C° 0 mm 3 mps 749 mmHg 32%
    19:00 +14°C° 0 mm 4 mps 749 mmHg 39%
    20:00 +12°C° 0 mm 4 mps 749 mmHg 45%
    21:00 +11°C° 0 mm 4 mps 749 mmHg 52%
    22:00 +10°C° 0 mm 5 mps 748 mmHg 57%
    23:00 +10°C° 0 mm 5 mps 748 mmHg 61%

    1 June, Friday

    Time Temperature Precipitation Wind Pressure Humidity
    00:00 +9°C° 0 mm 6 mps 747 mmHg 66%
    01:00 +9°C° 1.3 mm 6 mps 746 mmHg 73%
    02:00 +9°C° 1.3 mm 7 mps 745 mmHg 81%
    03:00 +9°C° 1.3 mm 7 mps 744 mmHg 88%
    04:00 +9°C° 0.8 mm 6 mps 744 mmHg 89%
    05:00 +10°C° 0.8 mm 6 mps 744 mmHg 90%
    06:00 +12°C° 0.8 mm 5 mps 743 mmHg 91%
    07:00 +13°C° 0.3 mm 6 mps 743 mmHg 88%
    08:00 +14°C° 0.3 mm 6 mps 743 mmHg 84%
    09:00 +15°C° 0.3 mm 7 mps 743 mmHg 81%
    10:00 +14°C° 1.4 mm 6 mps 742 mmHg 84%
    11:00 +13°C° 1.4 mm 6 mps 742 mmHg 88%
    12:00 +13°C° 1.4 mm 5 mps 741 mmHg 91%
    13:00 +12°C° 3.2 mm 5 mps 741 mmHg 91%
    14:00 +12°C° 3.2 mm 5 mps 740 mmHg 91%
    15:00 +10°C° 3.2 mm 5 mps 740 mmHg 91%
    16:00 +12°C° 0.2 mm 5 mps 741 mmHg 84%
    17:00 +11°C° 0.2 mm 6 mps 742 mmHg 78%
    18:00 +12°C° 0.2 mm 7 mps 743 mmHg 71%
    19:00 +10°C° 0.1 mm 6 mps 743 mmHg 71%
    20:00 +9°C° 0.1 mm 5 mps 744 mmHg 72%
    21:00 +8°C° 0.1 mm 4 mps 744 mmHg 72%
    22:00 +8°C° 0 mm 5 mps 745 mmHg 72%
    23:00 +7°C° 0 mm 5 mps 745 mmHg 73%

    2 June, Saturday

    Time Temperature Precipitation Wind Pressure Humidity
    00:00 +7°C° 0 mm 5 mps 745 mmHg 73%
    01:00 +7°C° 0 mm 5 mps 746 mmHg 74%
    02:00 +7°C° 0 mm 5 mps 746 mmHg 74%
    03:00 +7°C° 0 mm 6 mps 747 mmHg 74%
    04:00 +7°C° 0.1 mm 6 mps 747 mmHg 74%
    05:00 +7°C° 0.1 mm 6 mps 748 mmHg 75%
    06:00 +7°C° 0.1 mm 6 mps 749 mmHg 75%
    07:00 +7°C° 0.1 mm 6 mps 750 mmHg 73%
    08:00 +7°C° 0.1 mm 6 mps 750 mmHg 72%
    09:00 +7°C° 0.1 mm 5 mps 751 mmHg 71%
    10:00 +8°C° 0 mm 5 mps 752 mmHg 64%
    11:00 +9°C° 0 mm 5 mps 752 mmHg 57%
    12:00 +10°C° 0 mm 5 mps 753 mmHg 50%
    13:00 +12°C° 0 mm 5 mps 753 mmHg 45%
    14:00 +13°C° 0 mm 4 mps 753 mmHg 40%
    15:00 +14°C° 0 mm 4 mps 753 mmHg 35%
    16:00 +14°C° 0 mm 4 mps 753 mmHg 35%
    17:00 +14°C° 0 mm 3 mps 753 mmHg 34%
    18:00 +14°C° 0 mm 3 mps 753 mmHg 34%
    19:00 +13°C° 0 mm 2 mps 753 mmHg 40%
    20:00 +11°C° 0 mm 1 mps 753 mmHg 47%
    21:00 +9°C° 0 mm 1 mps 753 mmHg 53%
    22:00 +9°C° 0 mm 1 mps 753 mmHg 54%
    23:00 +8°C° 0 mm 1 mps 753 mmHg 55%
    Show more